DW4248 Weather Reports


Display with metric or nautical units.
time (UTC)temp
F
wind
direction
speed
MPH
gust
MPH
rain 1hr
in
rain 24hr
in
rain mn
in
humidity
%
barometer
mb
20260831124503 75 0 0.0 0.0 0.00 0.00 0.00 70 1016.6
20260831123603 75 132 0.0 1.0 0.00 0.00 0.00 70 1016.5
20260831122703 75 0 0.0 0.0 0.00 0.00 0.00 70 1016.4
20260831121803 74 134 0.0 1.0 0.00 0.00 0.00 70 1016.4
20260831120903 74 0 0.0 0.0 0.00 0.00 0.00 71 1016.2
20260831120003 74 0 0.0 0.0 0.00 0.00 0.00 71 1016.1
20260831115403 74 0 0.0 0.0 0.00 0.00 0.00 70 1016.0
20260831114503 74 0 0.0 0.0 0.00 0.00 0.00 70 1016.0
20260831113603 74 0 0.0 0.0 0.00 0.00 0.00 69 1016.0
20260831112703 75 0 0.0 0.0 0.00 0.00 0.00 68 1016.0
20260831111803 75 132 0.0 1.0 0.00 0.00 0.00 68 1015.9
20260831110903 76 0 0.0 1.0 0.00 0.00 0.00 66 1015.8
20260831110003 76 134 0.0 1.0 0.00 0.00 0.00 65 1015.8
20260831105403 76 134 0.0 1.0 0.00 0.00 0.00 65 1015.9
20260831104503 76 134 0.0 1.0 0.00 0.00 0.00 66 1015.8
20260831103603 76 126 0.0 1.0 0.00 0.00 0.00 66 1015.8
20260831102703 76 0 0.0 0.0 0.00 0.00 0.00 66 1015.9
20260831101803 76 125 0.0 1.0 0.00 0.00 0.00 66 1015.8
20260831100903 76 0 0.0 0.0 0.00 0.00 0.00 66 1015.8
20260831100025 76 125 0.0 1.0 0.00 0.00 0.00 66 1015.7
20260831095424 76 0 0.0 0.0 0.00 0.00 0.00 66 1015.7
20260831094524 76 126 0.0 1.0 0.00 0.00 0.00 65 1015.7
20260831093624 76 125 0.0 1.0 0.00 0.00 0.00 64 1015.7
20260831092724 76 126 0.0 1.0 0.00 0.00 0.00 64 1015.8
20260831091803 77 126 0.0 1.0 0.00 0.00 0.00 63 1015.7
20260831090903 77 127 0.0 1.0 0.00 0.00 0.00 63 1015.7
20260831090003 77 118 0.0 1.0 0.00 0.00 0.00 63 1015.5
20260831085403 77 124 0.0 1.0 0.00 0.00 0.00 63 1015.5
20260831084503 77 133 0.0 1.0 0.00 0.00 0.00 62 1015.5
20260831083603 77 124 0.0 1.0 0.00 0.00 0.00 63 1015.4
20260831082703 77 169 0.0 1.0 0.00 0.00 0.00 62 1015.4
20260831081803 77 184 0.0 1.0 0.00 0.00 0.00 63 1015.2
20260831080903 77 151 0.0 1.0 0.00 0.00 0.00 63 1015.2
20260831080003 77 135 0.0 1.0 0.00 0.00 0.00 63 1015.1
20260831075424 77 128 0.0 1.0 0.00 0.00 0.00 63 1015.1
20260831074524 77 133 0.0 1.0 0.00 0.00 0.00 64 1015.1
20260831073624 77 137 0.0 1.0 0.00 0.00 0.00 64 1015.2
20260831072724 77 0 0.0 0.0 0.00 0.00 0.00 64 1015.2
20260831071824 77 0 0.0 0.0 0.00 0.00 0.00 64 1015.3
20260831070903 78 0 0.0 0.0 0.00 0.00 0.00 63 1015.3
20260831070003 78 137 0.0 1.0 0.00 0.00 0.00 63 1015.3
20260831065403 78 136 0.0 1.0 0.00 0.00 0.00 62 1015.4
20260831064503 78 136 0.0 1.0 0.00 0.00 0.00 63 1015.5
20260831063603 78 0 0.0 0.0 0.00 0.00 0.00 64 1015.5
20260831062703 78 136 0.0 1.0 0.00 0.00 0.00 64 1015.5
20260831061803 78 133 0.0 1.0 0.00 0.00 0.00 64 1015.6
20260831060903 79 134 0.0 1.0 0.00 0.00 0.00 63 1015.6
20260831060003 79 127 0.0 1.0 0.00 0.00 0.00 63 1015.6
20260831055403 79 136 0.0 2.0 0.00 0.00 0.00 63 1015.6
20260831054503 79 134 0.0 2.0 0.00 0.00 0.00 63 1015.6
20260831053603 79 130 0.0 2.0 0.00 0.00 0.00 62 1015.6
20260831052703 80 131 0.0 3.0 0.00 0.00 0.00 62 1015.4
20260831051803 80 131 0.0 2.0 0.00 0.00 0.00 62 1015.4
20260831050903 80 131 0.0 2.0 0.00 0.00 0.00 63 1015.4
20260831050005 80 133 0.0 1.0 0.00 0.00 0.00 63 1015.5
20260831045403 80 129 0.0 1.0 0.00 0.00 0.00 63 1015.5
20260831044503 80 138 0.0 1.0 0.00 0.00 0.00 62 1015.4
20260831043603 81 129 0.0 1.0 0.00 0.00 0.00 62 1015.4
20260831042703 81 135 0.0 1.0 0.00 0.00 0.00 62 1015.4
20260831041803 82 133 1.0 5.0 0.00 0.00 0.00 60 1015.4
20260831040903 82 137 1.0 4.0 0.00 0.00 0.00 61 1015.4
20260831040003 82 137 0.0 3.0 0.00 0.00 0.00 60 1015.4
20260831035403 82 136 1.0 3.0 0.00 0.00 0.00 60 1015.3
20260831034503 82 134 0.0 4.0 0.00 0.00 0.00 60 1015.3
20260831033603 82 138 0.0 3.0 0.00 0.00 0.00 60 1015.2
20260831032703 82 135 1.0 3.0 0.00 0.00 0.00 60 1015.1
20260831031803 83 132 1.0 4.0 0.00 0.00 0.00 59 1015.1
20260831030903 83 132 1.0 5.0 0.00 0.00 0.00 59 1015.1
20260831030003 83 141 1.0 5.0 0.00 0.00 0.00 59 1015.1
20260831025403 83 134 1.0 3.0 0.00 0.00 0.00 59 1015.1
20260831024503 83 134 1.0 6.0 0.00 0.00 0.00 59 1015.0
20260831023603 84 136 1.0 6.0 0.00 0.00 0.00 58 1015.1
20260831022703 84 136 1.0 6.0 0.00 0.00 0.00 58 1015.0
20260831021803 84 135 1.0 4.0 0.00 0.00 0.00 58 1015.0
20260831020903 85 137 1.0 4.0 0.00 0.00 0.00 57 1014.9
20260831020003 85 139 2.0 6.0 0.00 0.00 0.00 56 1014.9
20260831015403 85 135 2.0 7.0 0.00 0.00 0.00 55 1014.9
20260831014503 86 137 2.0 7.0 0.00 0.00 0.00 55 1014.8
20260831013603 86 138 2.0 7.0 0.00 0.00 0.00 54 1014.8
20260831012703 86 138 2.0 7.0 0.00 0.00 0.00 53 1014.5
20260831011803 87 139 2.0 7.0 0.00 0.00 0.00 52 1014.5
20260831010903 87 138 2.0 7.0 0.00 0.00 0.00 52 1014.3
20260831010003 87 139 1.0 5.0 0.00 0.00 0.00 51 1014.4
20260831005403 88 137 1.0 7.0 0.00 0.00 0.00 50 1014.4
20260831004524 88 136 1.0 6.0 0.00 0.00 0.00 50 1014.3
20260831003624 89 134 1.0 5.0 0.00 0.00 0.00 48 1014.4
20260831002724 89 137 2.0 5.0 0.00 0.00 0.00 47 1014.3
20260831001824 90 138 2.0 7.0 0.00 0.00 0.00 46 1014.3
20260831000924 90 140 2.0 11.0 0.00 0.00 0.00 45 1014.3
20260831000003 91 139 3.0 10.0 0.00 0.00 0.00 44 1014.3
20260830235403 91 138 2.0 9.0 0.00 0.00 0.00 44 1014.4
20260830234503 92 139 2.0 7.0 0.00 0.00 0.00 43 1014.4
20260830233603 92 138 1.0 7.0 0.00 0.00 0.00 43 1014.4
20260830232703 92 139 1.0 9.0 0.00 0.00 0.00 42 1014.5
20260830231824 93 137 1.0 4.0 0.00 0.00 0.00 42 1014.5
20260830230924 93 150 2.0 8.0 0.00 0.00 0.00 42 1014.4
20260830230024 94 145 3.0 10.0 0.00 0.00 0.00 41 1014.4
20260830225424 94 147 3.0 10.0 0.00 0.00 0.00 39 1014.4
20260830224524 95 140 2.0 10.0 0.00 0.00 0.00 36 1014.4
20260830223624 95 143 2.0 9.0 0.00 0.00 0.00 36 1014.3
20260830222724 95 141 2.0 9.0 0.00 0.00 0.00 35 1014.3
20260830221824 95 143 2.0 6.0 0.00 0.00 0.00 36 1014.4
20260830220924 95 144 2.0 7.0 0.00 0.00 0.00 36 1014.3
20260830220024 95 139 1.0 7.0 0.00 0.00 0.00 37 1014.4
20260830215424 95 141 2.0 6.0 0.00 0.00 0.00 35 1014.4
20260830214524 95 137 2.0 8.0 0.00 0.00 0.00 36 1014.3
20260830213624 95 140 2.0 8.0 0.00 0.00 0.00 36 1014.3
20260830212724 96 139 2.0 5.0 0.00 0.00 0.00 36 1014.5
20260830211824 96 137 2.0 7.0 0.00 0.00 0.00 37 1014.6
20260830210903 95 137 1.0 5.0 0.00 0.00 0.00 37 1014.6
20260830210003 95 141 1.0 4.0 0.00 0.00 0.00 39 1014.6
20260830205403 95 137 1.0 7.0 0.00 0.00 0.00 37 1014.7
20260830204503 95 135 1.0 4.0 0.00 0.00 0.00 38 1014.7
20260830203603 95 136 1.0 6.0 0.00 0.00 0.00 38 1014.7
20260830202724 96 139 2.0 9.0 0.00 0.00 0.00 38 1014.8
20260830201824 96 139 2.0 7.0 0.00 0.00 0.00 36 1014.9
20260830200924 96 140 2.0 9.0 0.00 0.00 0.00 37 1015.1
20260830200024 96 145 1.0 4.0 0.00 0.00 0.00 37 1015.2
20260830195424 96 141 1.0 7.0 0.00 0.00 0.00 37 1015.2
20260830194503 96 139 2.0 8.0 0.00 0.00 0.00 36 1015.2
20260830193603 96 138 2.0 8.0 0.00 0.00 0.00 36 1015.4
20260830192703 96 147 1.0 5.0 0.00 0.00 0.00 36 1015.4
20260830191803 96 143 2.0 9.0 0.00 0.00 0.00 37 1015.5
20260830190903 96 138 3.0 7.0 0.00 0.00 0.00 36 1015.6
20260830190003 96 142 2.0 4.0 0.00 0.00 0.00 37 1015.9
20260830185403 95 141 1.0 7.0 0.00 0.00 0.00 38 1015.8
20260830184503 95 142 1.0 4.0 0.00 0.00 0.00 39 1015.8
20260830183603 94 144 1.0 7.0 0.00 0.00 0.00 40 1015.8
20260830182703 93 140 2.0 6.0 0.00 0.00 0.00 39 1015.9
20260830181824 93 136 2.0 9.0 0.00 0.00 0.00 40 1016.0
20260830180003 92 147 2.0 7.0 0.00 0.00 0.00 42 1016.2
20260830175403 92 159 2.0 6.0 0.00 0.00 0.00 41 1016.3
20260830174503 91 162 2.0 7.0 0.00 0.00 0.00 42 1016.4
20260830173603 91 148 1.0 7.0 0.00 0.00 0.00 43 1016.6
20260830172703 90 142 1.0 4.0 0.00 0.00 0.00 46 1016.6
20260830171803 90 144 1.0 4.0 0.00 0.00 0.00 46 1016.7
20260830170903 89 137 1.0 4.0 0.00 0.00 0.00 47 1016.9
20260830170003 89 140 1.0 4.0 0.00 0.00 0.00 48 1017.2
20260830165403 89 141 1.0 4.0 0.00 0.00 0.00 48 1017.3
20260830164503 88 141 1.0 4.0 0.00 0.00 0.00 51 1017.4
20260830163603 87 145 2.0 5.0 0.00 0.00 0.00 50 1017.4
20260830162703 87 146 2.0 7.0 0.00 0.00 0.00 50 1017.4
20260830161803 86 140 2.0 6.0 0.00 0.00 0.00 52 1017.3
20260830160903 86 139 1.0 5.0 0.00 0.00 0.00 53 1017.4
20260830160003 85 139 2.0 7.0 0.00 0.00 0.00 53 1017.3
20260830155403 85 152 2.0 3.0 0.00 0.00 0.00 53 1017.2
20260830154503 84 134 1.0 8.0 0.00 0.00 0.00 57 1017.2
20260830153603 84 159 1.0 4.0 0.00 0.00 0.00 56 1017.1
20260830152703 83 151 2.0 9.0 0.00 0.00 0.00 56 1016.9
20260830151803 83 139 2.0 5.0 0.00 0.00 0.00 58 1016.7
20260830150903 82 148 2.0 9.0 0.00 0.00 0.00 59 1016.9
20260830150003 82 146 2.0 6.0 0.00 0.00 0.00 59 1016.9
20260830145403 81 141 2.0 7.0 0.00 0.00 0.00 61 1017.0
20260830144503 80 139 1.0 8.0 0.00 0.00 0.00 62 1016.9
20260830143603 80 136 2.0 6.0 0.00 0.00 0.00 62 1016.8
20260830142703 79 138 1.0 4.0 0.00 0.00 0.00 65 1016.8
20260830141803 78 135 1.0 4.0 0.00 0.00 0.00 66 1016.9
20260830140903 77 139 1.0 5.0 0.00 0.00 0.00 68 1016.9
20260830140003 76 131 1.0 4.0 0.00 0.00 0.00 70 1016.9
20260830135403 76 136 1.0 3.0 0.00 0.00 0.00 71 1016.8
20260830134503 75 153 1.0 4.0 0.00 0.00 0.00 73 1016.8
20260830133603 75 144 1.0 4.0 0.00 0.00 0.00 74 1016.9
20260830132703 74 144 1.0 3.0 0.00 0.00 0.00 75 1017.0
20260830131824 73 133 0.0 3.0 0.00 0.00 0.00 77 1016.9
20260830130924 73 135 0.0 2.0 0.00 0.00 0.00 78 1017.0
20260830130024 72 132 0.0 2.0 0.00 0.00 0.00 80 1017.0
20260830125424 72 131 0.0 2.0 0.00 0.00 0.00 80 1017.1